GEFSSGP_prec_meanprecacc_096.txt.gz
Total_Precipitation_Accumulation
0.01 0.04 0.13 0.21 0.23 0.28 0.33 0.19 0.12 0.03 0.01 0.01 0.01 0.00 0.00 0.00 0.02 0.09 0.01 0.00 0.00 0.00 0.01 0.02 0.02 0.01 0.01 0.02 0.03 0.04 0.03 0.03 0.04 0.07 0.10 0.12 0.14 0.11 0.07 0.04 0.03 0.03 0.02 0.02 0.02 0.02 0.03 0.03 0.03
0.01 0.04 0.13 0.18 0.26 0.46 0.36 0.15 0.05 0.03 0.02 0.01 0.01 0.01 0.00 0.00 0.00 0.00 0.00 0.00 0.00 0.00 0.00 0.01 0.01 0.01 0.01 0.02 0.03 0.05 0.05 0.03 0.04 0.10 0.11 0.10 0.11 0.10 0.08 0.08 0.06 0.05 0.03 0.02 0.02 0.02 0.02 0.02 0.01
0.01 0.03 0.09 0.14 0.28 0.38 0.26 0.13 0.05 0.04 0.03 0.02 0.02 0.01 0.00 0.00 0.00 0.00 0.00 0.00 0.00 0.00 0.00 0.01 0.01 0.01 0.01 0.02 0.03 0.05 0.07 0.06 0.07 0.10 0.11 0.08 0.09 0.10 0.10 0.11 0.12 0.09 0.05 0.03 0.02 0.02 0.02 0.02 0.01
0.01 0.02 0.06 0.10 0.16 0.19 0.17 0.08 0.04 0.02 0.01 0.01 0.01 0.01 0.01 0.00 0.00 0.00 0.00 0.00 0.00 0.00 0.00 0.01 0.01 0.01 0.01 0.01 0.02 0.03 0.06 0.07 0.08 0.10 0.10 0.10 0.12 0.11 0.08 0.10 0.11 0.09 0.05 0.04 0.05 0.04 0.03 0.02 0.01
0.01 0.01 0.03 0.08 0.11 0.11 0.10 0.07 0.03 0.03 0.02 0.01 0.01 0.02 0.02 0.00 0.00 0.00 0.00 0.00 0.00 0.00 0.00 0.01 0.01 0.01 0.01 0.01 0.01 0.02 0.03 0.04 0.06 0.09 0.11 0.10 0.11 0.11 0.10 0.08 0.07 0.05 0.03 0.04 0.09 0.11 0.10 0.07 0.05
0.01 0.01 0.02 0.06 0.08 0.08 0.09 0.06 0.04 0.05 0.03 0.02 0.03 0.03 0.03 0.01 0.00 0.00 0.00 0.00 0.00 0.00 0.01 0.01 0.02 0.01 0.01 0.01 0.01 0.02 0.02 0.03 0.03 0.05 0.07 0.06 0.04 0.04 0.04 0.05 0.05 0.03 0.03 0.06 0.09 0.09 0.12 0.15 0.12
0.01 0.01 0.01 0.03 0.04 0.04 0.05 0.06 0.06 0.06 0.03 0.02 0.02 0.02 0.02 0.01 0.00 0.01 0.01 0.01 0.01 0.00 0.00 0.01 0.01 0.01 0.01 0.01 0.01 0.01 0.02 0.02 0.02 0.02 0.02 0.02 0.02 0.02 0.02 0.03 0.03 0.02 0.03 0.05 0.06 0.06 0.07 0.11 0.12
0.00 0.01 0.01 0.01 0.02 0.02 0.03 0.05 0.06 0.05 0.03 0.01 0.02 0.02 0.03 0.02 0.01 0.01 0.02 0.02 0.03 0.01 0.00 0.01 0.01 0.02 0.02 0.01 0.01 0.01 0.02 0.02 0.02 0.02 0.02 0.02 0.02 0.02 0.03 0.04 0.05 0.05 0.06 0.07 0.08 0.07 0.08 0.11 0.12
0.00 0.00 0.00 0.00 0.01 0.01 0.01 0.05 0.06 0.03 0.04 0.02 0.01 0.01 0.02 0.02 0.02 0.02 0.04 0.08 0.07 0.03 0.02 0.01 0.01 0.02 0.02 0.01 0.01 0.02 0.02 0.02 0.02 0.02 0.02 0.03 0.03 0.06 0.09 0.10 0.16 0.17 0.20 0.22 0.23 0.21 0.19 0.18 0.17
0.00 0.00 0.00 0.00 0.00 0.00 0.01 0.04 0.04 0.03 0.05 0.04 0.03 0.02 0.03 0.06 0.10 0.07 0.04 0.10 0.08 0.06 0.04 0.03 0.02 0.02 0.02 0.02 0.04 0.05 0.05 0.07 0.04 0.07 0.10 0.10 0.14 0.14 0.10 0.15 0.32 0.50 0.62 0.60 0.60 0.58 0.46 0.41 0.42
0.00 0.00 0.00 0.00 0.00 0.00 0.00 0.01 0.02 0.02 0.03 0.08 0.10 0.07 0.06 0.12 0.09 0.05 0.08 0.16 0.18 0.13 0.07 0.06 0.05 0.04 0.04 0.06 0.07 0.07 0.09 0.14 0.10 0.11 0.17 0.24 0.25 0.19 0.15 0.21 0.35 0.52 0.65 0.76 1.02 1.07 0.84 0.90 0.89
0.00 0.00 0.00 0.00 0.00 0.00 0.00 0.00 0.01 0.02 0.03 0.09 0.17 0.14 0.10 0.10 0.06 0.06 0.17 0.26 0.28 0.19 0.13 0.10 0.09 0.12 0.12 0.10 0.13 0.13 0.14 0.17 0.18 0.23 0.29 0.35 0.42 0.38 0.33 0.39 0.45 0.61 0.69 0.93 1.04 1.13 1.01 0.90 0.84
0.00 0.00 0.00 0.00 0.00 0.00 0.00 0.00 0.00 0.01 0.03 0.04 0.06 0.08 0.07 0.06 0.07 0.12 0.20 0.26 0.37 0.39 0.32 0.26 0.21 0.34 0.32 0.24 0.25 0.21 0.22 0.24 0.24 0.29 0.36 0.44 0.50 0.49 0.53 0.62 0.68 0.59 0.71 0.94 1.10 1.04 1.18 1.20 1.08
0.00 0.00 0.00 0.00 0.00 0.00 0.00 0.00 0.00 0.01 0.02 0.04 0.05 0.06 0.09 0.17 0.16 0.18 0.24 0.43 0.35 0.34 0.39 0.41 0.44 0.53 0.52 0.44 0.45 0.43 0.41 0.42 0.39 0.43 0.51 0.59 0.59 0.67 0.75 0.81 0.89 0.77 0.81 0.99 1.17 1.09 1.32 1.25 1.25
0.00 0.00 0.00 0.00 0.00 0.00 0.00 0.00 0.01 0.01 0.01 0.03 0.05 0.08 0.14 0.19 0.26 0.37 0.44 0.50 0.42 0.43 0.51 0.56 0.61 0.77 0.84 0.85 0.88 0.89 0.84 0.77 0.72 0.74 0.80 0.85 0.80 0.92 0.98 1.00 1.01 1.04 1.05 1.21 1.26 1.27 1.37 1.20 1.09
0.00 0.00 0.00 0.00 0.00 0.00 0.00 0.02 0.03 0.03 0.04 0.05 0.08 0.15 0.23 0.27 0.37 0.60 0.76 0.64 0.58 0.65 0.72 0.76 0.85 1.11 1.30 1.39 1.43 1.37 1.23 1.10 1.01 1.01 1.03 1.15 1.17 1.26 1.39 1.23 1.17 1.41 1.46 1.52 1.65 1.55 1.56 1.57 1.40
0.00 0.00 0.00 0.00 0.01 0.01 0.01 0.03 0.05 0.05 0.08 0.10 0.13 0.22 0.34 0.48 0.62 0.70 0.76 0.80 0.90 1.02 1.00 1.10 1.26 1.51 1.71 1.82 1.93 1.77 1.58 1.42 1.31 1.25 1.24 1.30 1.45 1.68 1.92 1.68 1.67 1.78 1.77 1.75 1.52 1.82 2.02 1.91 1.74
0.00 0.00 0.01 0.01 0.01 0.01 0.02 0.06 0.09 0.09 0.12 0.17 0.28 0.39 0.45 0.56 0.75 0.87 0.97 1.06 1.16 1.33 1.44 1.51 1.64 1.89 2.27 2.56 2.59 2.25 1.91 1.68 1.60 1.54 1.57 1.66 1.88 2.09 2.30 2.03 1.96 2.00 2.01 1.92 1.95 2.18 2.15 1.91 1.84
0.00 0.01 0.03 0.02 0.01 0.02 0.03 0.10 0.17 0.22 0.35 0.51 0.57 0.53 0.58 0.71 0.98 1.20 1.31 1.27 1.45 1.63 1.84 1.96 2.15 2.60 3.06 3.06 2.79 2.60 2.34 2.14 1.98 1.87 1.82 1.85 1.88 2.07 2.32 2.13 2.26 2.20 2.01 1.94 2.05 2.22 2.18 1.92 2.08
0.00 0.01 0.03 0.02 0.01 0.02 0.07 0.18 0.29 0.38 0.57 0.62 0.46 0.43 0.62 0.85 1.15 1.39 1.48 1.48 1.59 1.92 2.32 2.50 2.65 3.10 3.39 3.32 3.19 3.01 2.83 2.48 2.36 2.24 2.11 1.92 1.84 1.97 2.07 2.23 2.10 2.08 2.05 2.02 2.13 2.23 2.02 1.73 2.13
0.01 0.01 0.02 0.02 0.03 0.05 0.11 0.31 0.51 0.63 0.73 0.65 0.54 0.58 0.68 0.78 1.06 1.26 1.24 1.29 1.41 1.57 1.79 2.10 2.52 2.98 3.17 3.27 3.22 3.12 3.06 2.65 2.50 2.35 2.19 2.01 1.88 1.86 1.96 2.06 2.07 1.97 1.95 1.92 2.08 2.11 2.03 1.86 1.98
0.01 0.01 0.01 0.01 0.02 0.07 0.13 0.37 0.67 0.99 1.04 0.77 0.61 0.63 0.71 0.98 1.17 1.06 0.97 1.07 1.17 1.17 1.43 1.71 2.09 2.46 2.71 2.87 2.90 2.95 2.86 2.67 2.62 2.46 2.13 1.91 1.79 1.79 1.85 1.87 1.85 1.84 1.78 1.73 1.68 1.79 2.08 2.09 1.87
0.01 0.01 0.01 0.01 0.01 0.04 0.10 0.30 0.72 1.19 1.25 0.81 0.68 0.70 0.86 1.06 1.02 0.90 0.92 1.04 1.08 1.13 1.36 1.59 1.83 2.12 2.38 2.49 2.49 2.50 2.41 2.34 2.29 2.15 1.92 1.76 1.66 1.60 1.51 1.54 1.69 1.73 1.65 1.58 1.58 1.66 1.80 1.83 1.79
0.02 0.03 0.03 0.04 0.08 0.17 0.22 0.37 0.79 1.16 1.00 0.70 0.68 0.62 0.71 0.86 0.88 0.91 0.97 1.03 1.10 1.28 1.47 1.68 1.89 2.14 2.27 2.13 1.98 1.96 1.97 2.00 1.93 1.81 1.66 1.50 1.42 1.35 1.29 1.36 1.49 1.52 1.52 1.50 1.46 1.50 1.59 1.63 1.63
0.04 0.06 0.16 0.30 0.42 0.53 0.48 0.58 1.10 0.96 0.71 0.62 0.64 0.63 0.60 0.68 0.74 0.79 0.98 1.19 1.24 1.21 1.23 1.42 1.71 2.02 2.05 1.88 1.71 1.63 1.62 1.68 1.67 1.58 1.50 1.44 1.32 1.23 1.21 1.23 1.23 1.26 1.30 1.35 1.38 1.40 1.46 1.58 1.61
0.08 0.12 0.27 0.33 0.31 0.44 0.46 0.83 1.22 0.90 0.63 0.53 0.55 0.58 0.52 0.46 0.39 0.40 0.49 0.59 0.57 0.57 0.58 0.65 0.78 1.00 1.12 1.10 1.10 1.10 1.14 1.21 1.26 1.36 1.33 1.33 1.28 1.17 1.11 1.05 1.03 1.07 1.10 1.14 1.26 1.36 1.43 1.53 1.59
0.18 0.21 0.18 0.30 0.30 0.39 0.50 0.74 0.80 0.59 0.53 0.49 0.50 0.47 0.42 0.35 0.29 0.28 0.29 0.32 0.36 0.38 0.42 0.51 0.58 0.66 0.72 0.72 0.71 0.73 0.79 0.89 0.96 1.03 1.07 1.10 1.10 1.05 1.03 1.04 1.05 1.02 1.03 1.08 1.16 1.25 1.30 1.41 1.50
0.15 0.21 0.34 0.50 0.51 0.43 0.45 0.79 0.99 0.90 0.81 0.67 0.61 0.55 0.44 0.34 0.29 0.27 0.28 0.32 0.40 0.48 0.57 0.63 0.62 0.58 0.55 0.55 0.56 0.54 0.60 0.66 0.72 0.75 0.78 0.78 0.80 0.83 0.85 0.86 0.89 0.90 0.91 0.93 1.02 1.11 1.19 1.28 1.33
0.15 0.21 0.35 0.48 0.50 0.51 0.53 0.67 0.60 0.66 0.76 0.83 0.83 0.69 0.48 0.35 0.30 0.29 0.28 0.31 0.36 0.45 0.52 0.59 0.60 0.57 0.55 0.53 0.53 0.53 0.52 0.52 0.55 0.61 0.62 0.64 0.66 0.68 0.69 0.71 0.75 0.79 0.83 0.88 0.92 0.96 1.05 1.10 1.13
0.12 0.20 0.33 0.50 0.54 0.55 0.58 0.62 0.36 0.38 0.50 0.59 0.58 0.46 0.33 0.27 0.25 0.24 0.23 0.25 0.28 0.35 0.42 0.46 0.48 0.52 0.52 0.47 0.48 0.50 0.48 0.45 0.47 0.48 0.49 0.52 0.55 0.58 0.59 0.62 0.65 0.70 0.76 0.84 0.93 0.99 1.04 1.06 1.06

GEFSSGP_prec_meanprecacc_102.txt.gz
Total_Precipitation_Accumulation
0.01 0.04 0.14 0.22 0.24 0.28 0.33 0.20 0.13 0.04 0.02 0.02 0.01 0.01 0.01 0.01 0.02 0.09 0.01 0.00 0.00 0.00 0.01 0.03 0.02 0.01 0.01 0.02 0.03 0.04 0.03 0.03 0.04 0.07 0.10 0.12 0.14 0.11 0.07 0.04 0.03 0.03 0.02 0.02 0.02 0.02 0.03 0.03 0.03
0.01 0.04 0.14 0.19 0.27 0.47 0.37 0.16 0.06 0.03 0.02 0.02 0.02 0.01 0.00 0.00 0.00 0.00 0.00 0.00 0.00 0.00 0.00 0.01 0.02 0.01 0.01 0.02 0.03 0.05 0.05 0.03 0.04 0.10 0.11 0.10 0.11 0.10 0.09 0.08 0.06 0.06 0.03 0.02 0.02 0.02 0.02 0.02 0.01
0.01 0.03 0.10 0.15 0.29 0.39 0.26 0.14 0.06 0.05 0.04 0.03 0.02 0.01 0.00 0.00 0.00 0.00 0.00 0.00 0.00 0.00 0.00 0.01 0.01 0.01 0.01 0.02 0.03 0.05 0.07 0.06 0.07 0.10 0.11 0.08 0.09 0.11 0.10 0.11 0.12 0.09 0.05 0.03 0.02 0.02 0.02 0.02 0.01
0.01 0.02 0.06 0.10 0.16 0.19 0.17 0.09 0.04 0.03 0.02 0.02 0.02 0.01 0.01 0.01 0.00 0.00 0.00 0.00 0.00 0.00 0.00 0.01 0.01 0.01 0.01 0.01 0.02 0.04 0.06 0.08 0.08 0.10 0.10 0.10 0.12 0.12 0.08 0.11 0.12 0.09 0.06 0.04 0.05 0.05 0.03 0.02 0.01
0.01 0.02 0.04 0.08 0.11 0.11 0.10 0.07 0.04 0.04 0.03 0.02 0.02 0.03 0.03 0.01 0.00 0.00 0.00 0.00 0.00 0.00 0.01 0.01 0.02 0.01 0.01 0.01 0.02 0.02 0.03 0.04 0.06 0.09 0.11 0.10 0.11 0.12 0.10 0.08 0.07 0.06 0.04 0.04 0.09 0.11 0.10 0.07 0.05
0.01 0.01 0.03 0.06 0.08 0.08 0.09 0.07 0.04 0.06 0.03 0.03 0.03 0.03 0.03 0.01 0.00 0.00 0.01 0.01 0.00 0.00 0.01 0.02 0.02 0.02 0.02 0.02 0.02 0.02 0.03 0.03 0.04 0.06 0.08 0.06 0.04 0.04 0.05 0.05 0.06 0.04 0.04 0.07 0.09 0.09 0.12 0.15 0.12
0.01 0.01 0.02 0.03 0.04 0.04 0.05 0.06 0.06 0.06 0.03 0.02 0.02 0.03 0.03 0.01 0.01 0.01 0.02 0.01 0.01 0.01 0.01 0.01 0.02 0.02 0.02 0.02 0.02 0.03 0.03 0.04 0.04 0.04 0.04 0.04 0.03 0.03 0.03 0.04 0.04 0.03 0.04 0.06 0.07 0.06 0.07 0.11 0.12
0.01 0.01 0.01 0.01 0.02 0.02 0.03 0.05 0.06 0.06 0.03 0.02 0.02 0.02 0.03 0.02 0.01 0.01 0.02 0.02 0.03 0.02 0.01 0.01 0.01 0.02 0.03 0.02 0.02 0.03 0.03 0.04 0.04 0.04 0.04 0.04 0.04 0.04 0.05 0.06 0.07 0.06 0.07 0.09 0.09 0.08 0.09 0.12 0.12
0.00 0.00 0.00 0.00 0.01 0.01 0.02 0.05 0.06 0.03 0.04 0.02 0.01 0.01 0.02 0.02 0.02 0.02 0.04 0.09 0.08 0.04 0.02 0.01 0.01 0.02 0.02 0.02 0.02 0.03 0.04 0.04 0.05 0.05 0.05 0.05 0.05 0.07 0.11 0.12 0.18 0.20 0.24 0.26 0.26 0.23 0.22 0.20 0.18
0.00 0.00 0.00 0.00 0.00 0.00 0.01 0.04 0.05 0.03 0.05 0.05 0.03 0.03 0.03 0.06 0.10 0.08 0.05 0.12 0.12 0.10 0.07 0.04 0.03 0.03 0.02 0.03 0.05 0.06 0.07 0.09 0.07 0.10 0.13 0.13 0.15 0.16 0.12 0.18 0.37 0.57 0.71 0.69 0.68 0.66 0.53 0.46 0.47
0.00 0.00 0.00 0.00 0.00 0.00 0.01 0.01 0.03 0.03 0.04 0.08 0.11 0.07 0.06 0.12 0.09 0.06 0.10 0.20 0.24 0.19 0.13 0.10 0.08 0.09 0.08 0.10 0.12 0.13 0.15 0.19 0.16 0.17 0.23 0.29 0.29 0.23 0.19 0.25 0.42 0.62 0.80 0.90 1.17 1.24 0.97 1.00 0.99
0.00 0.00 0.00 0.00 0.00 0.00 0.00 0.00 0.01 0.03 0.04 0.10 0.18 0.14 0.11 0.11 0.07 0.08 0.21 0.31 0.34 0.25 0.22 0.16 0.16 0.21 0.23 0.22 0.27 0.30 0.29 0.30 0.30 0.35 0.40 0.44 0.51 0.47 0.43 0.51 0.59 0.77 0.87 1.14 1.24 1.31 1.19 1.07 0.98
0.00 0.00 0.00 0.00 0.00 0.00 0.00 0.00 0.01 0.03 0.04 0.06 0.07 0.09 0.08 0.07 0.09 0.14 0.25 0.34 0.46 0.51 0.46 0.40 0.36 0.50 0.52 0.45 0.48 0.47 0.49 0.49 0.50 0.56 0.63 0.67 0.71 0.69 0.73 0.80 0.87 0.80 0.92 1.17 1.34 1.28 1.41 1.42 1.27
0.00 0.00 0.00 0.00 0.00 0.00 0.00 0.01 0.02 0.04 0.04 0.05 0.07 0.08 0.12 0.21 0.22 0.27 0.35 0.55 0.50 0.51 0.58 0.63 0.65 0.74 0.74 0.70 0.76 0.81 0.74 0.72 0.71 0.83 0.89 0.93 0.91 0.95 1.05 1.08 1.11 0.98 0.99 1.19 1.40 1.32 1.57 1.49 1.48
0.00 0.00 0.00 0.00 0.00 0.01 0.00 0.01 0.03 0.05 0.06 0.07 0.10 0.13 0.20 0.27 0.36 0.49 0.59 0.65 0.58 0.62 0.71 0.78 0.86 1.04 1.17 1.21 1.26 1.29 1.19 1.08 1.06 1.07 1.14 1.22 1.15 1.21 1.23 1.22 1.21 1.24 1.22 1.37 1.45 1.48 1.59 1.43 1.31
0.00 0.00 0.00 0.01 0.01 0.01 0.01 0.04 0.06 0.08 0.10 0.11 0.15 0.23 0.33 0.40 0.53 0.77 0.90 0.77 0.73 0.83 0.90 0.95 1.09 1.43 1.71 1.77 1.76 1.69 1.52 1.37 1.30 1.34 1.32 1.42 1.41 1.49 1.60 1.41 1.32 1.55 1.59 1.67 1.83 1.77 1.79 1.79 1.62
0.00 0.00 0.00 0.00 0.01 0.02 0.02 0.06 0.08 0.11 0.15 0.18 0.22 0.31 0.49 0.67 0.82 0.87 0.89 0.92 1.02 1.16 1.18 1.31 1.52 1.78 2.01 2.07 2.14 1.95 1.77 1.63 1.49 1.41 1.39 1.44 1.59 1.80 2.04 1.79 1.76 1.87 1.88 1.87 1.67 1.99 2.20 2.10 1.91
0.00 0.00 0.01 0.01 0.02 0.02 0.04 0.09 0.15 0.18 0.22 0.31 0.39 0.47 0.59 0.72 0.86 0.96 1.05 1.15 1.26 1.45 1.56 1.64 1.77 2.01 2.40 2.70 2.74 2.39 2.04 1.80 1.67 1.60 1.63 1.73 1.94 2.14 2.35 2.08 2.01 2.05 2.07 1.99 2.04 2.30 2.27 2.03 1.97
0.00 0.02 0.03 0.03 0.03 0.03 0.05 0.13 0.23 0.32 0.46 0.64 0.69 0.63 0.68 0.79 1.05 1.26 1.40 1.35 1.53 1.69 1.89 2.01 2.20 2.66 3.13 3.13 2.86 2.68 2.40 2.19 2.02 1.90 1.85 1.88 1.91 2.09 2.33 2.15 2.28 2.22 2.05 2.00 2.11 2.30 2.27 2.02 2.20
0.01 0.02 0.04 0.03 0.04 0.05 0.11 0.22 0.34 0.47 0.65 0.70 0.54 0.52 0.69 0.91 1.21 1.45 1.57 1.56 1.64 1.95 2.34 2.52 2.67 3.13 3.43 3.35 3.23 3.04 2.85 2.50 2.37 2.25 2.12 1.93 1.85 1.98 2.07 2.23 2.10 2.08 2.06 2.05 2.18 2.29 2.09 1.80 2.22
0.01 0.02 0.03 0.04 0.05 0.09 0.14 0.35 0.56 0.68 0.79 0.70 0.60 0.64 0.75 0.85 1.12 1.31 1.28 1.33 1.43 1.59 1.81 2.10 2.53 3.00 3.18 3.27 3.23 3.13 3.06 2.65 2.50 2.35 2.19 2.01 1.89 1.86 1.96 2.07 2.07 1.97 1.95 1.94 2.09 2.14 2.08 1.94 2.06
0.01 0.02 0.02 0.02 0.04 0.09 0.15 0.39 0.70 1.02 1.07 0.79 0.66 0.68 0.76 1.03 1.21 1.10 1.00 1.09 1.18 1.18 1.44 1.71 2.09 2.47 2.71 2.87 2.91 2.95 2.87 2.68 2.62 2.46 2.13 1.91 1.79 1.79 1.85 1.87 1.85 1.85 1.80 1.77 1.73 1.82 2.12 2.15 1.96
0.02 0.02 0.02 0.02 0.03 0.05 0.10 0.32 0.74 1.21 1.26 0.82 0.69 0.73 0.89 1.09 1.04 0.92 0.93 1.05 1.09 1.13 1.37 1.59 1.83 2.13 2.38 2.49 2.49 2.50 2.41 2.34 2.29 2.15 1.92 1.77 1.66 1.60 1.51 1.54 1.69 1.73 1.66 1.60 1.61 1.72 1.86 1.88 1.85
0.03 0.04 0.05 0.06 0.09 0.18 0.23 0.38 0.80 1.17 1.01 0.71 0.68 0.64 0.73 0.88 0.90 0.92 0.98 1.04 1.10 1.28 1.47 1.68 1.89 2.14 2.27 2.13 1.98 1.96 1.97 2.01 1.94 1.81 1.66 1.50 1.42 1.35 1.29 1.37 1.49 1.53 1.52 1.50 1.46 1.51 1.63 1.68 1.70
0.05 0.07 0.18 0.31 0.43 0.53 0.48 0.59 1.10 0.97 0.71 0.62 0.65 0.64 0.62 0.70 0.75 0.80 0.98 1.19 1.24 1.21 1.23 1.42 1.71 2.02 2.05 1.88 1.71 1.63 1.62 1.68 1.67 1.58 1.50 1.44 1.32 1.24 1.21 1.23 1.23 1.26 1.30 1.35 1.38 1.40 1.47 1.59 1.63
0.08 0.12 0.28 0.34 0.32 0.45 0.47 0.83 1.23 0.90 0.63 0.53 0.55 0.58 0.52 0.46 0.39 0.40 0.49 0.60 0.57 0.57 0.59 0.65 0.78 1.00 1.12 1.10 1.10 1.10 1.14 1.21 1.26 1.36 1.33 1.33 1.28 1.17 1.11 1.06 1.03 1.08 1.10 1.14 1.26 1.36 1.44 1.54 1.61
0.19 0.21 0.19 0.31 0.31 0.39 0.50 0.74 0.80 0.59 0.53 0.49 0.50 0.48 0.42 0.35 0.29 0.28 0.29 0.32 0.37 0.38 0.42 0.51 0.58 0.66 0.72 0.72 0.71 0.73 0.79 0.89 0.96 1.03 1.07 1.10 1.10 1.05 1.04 1.04 1.05 1.02 1.03 1.08 1.17 1.26 1.30 1.41 1.51
0.15 0.21 0.35 0.51 0.51 0.44 0.45 0.79 0.99 0.90 0.81 0.67 0.61 0.55 0.44 0.34 0.29 0.27 0.28 0.32 0.40 0.48 0.57 0.63 0.62 0.58 0.55 0.55 0.56 0.54 0.60 0.66 0.72 0.75 0.78 0.78 0.80 0.83 0.85 0.86 0.89 0.91 0.91 0.93 1.02 1.11 1.19 1.28 1.34
0.15 0.21 0.35 0.48 0.50 0.51 0.53 0.67 0.60 0.66 0.76 0.83 0.83 0.69 0.48 0.35 0.30 0.29 0.28 0.31 0.36 0.45 0.52 0.59 0.60 0.57 0.55 0.53 0.53 0.53 0.52 0.52 0.55 0.61 0.62 0.64 0.66 0.68 0.69 0.72 0.75 0.79 0.84 0.89 0.92 0.97 1.06 1.10 1.13
0.12 0.20 0.33 0.50 0.54 0.55 0.58 0.62 0.36 0.38 0.50 0.59 0.58 0.46 0.33 0.27 0.25 0.24 0.23 0.25 0.28 0.35 0.42 0.46 0.48 0.52 0.52 0.47 0.48 0.50 0.48 0.45 0.47 0.48 0.49 0.52 0.56 0.58 0.59 0.62 0.65 0.70 0.76 0.84 0.93 0.99 1.04 1.06 1.06

GEFSSGP_prec_meanprecacc_108.txt.gz
Total_Precipitation_Accumulation
0.01 0.04 0.14 0.22 0.24 0.29 0.34 0.20 0.13 0.04 0.02 0.02 0.02 0.01 0.01 0.01 0.02 0.10 0.01 0.00 0.00 0.00 0.01 0.03 0.02 0.01 0.01 0.02 0.03 0.04 0.04 0.03 0.04 0.07 0.11 0.12 0.14 0.11 0.07 0.05 0.03 0.03 0.03 0.02 0.02 0.03 0.04 0.04 0.04
0.01 0.04 0.14 0.19 0.28 0.48 0.37 0.16 0.06 0.04 0.03 0.03 0.02 0.01 0.00 0.00 0.00 0.00 0.00 0.00 0.00 0.00 0.01 0.01 0.02 0.01 0.01 0.02 0.03 0.05 0.05 0.04 0.05 0.10 0.11 0.10 0.12 0.10 0.09 0.08 0.07 0.06 0.04 0.03 0.02 0.02 0.02 0.02 0.01
0.01 0.03 0.10 0.16 0.30 0.39 0.27 0.14 0.06 0.05 0.04 0.03 0.03 0.02 0.01 0.00 0.00 0.00 0.00 0.00 0.00 0.00 0.00 0.01 0.01 0.01 0.01 0.02 0.03 0.05 0.07 0.06 0.07 0.10 0.11 0.09 0.09 0.11 0.10 0.12 0.13 0.10 0.06 0.03 0.03 0.02 0.02 0.02 0.01
0.01 0.02 0.06 0.11 0.17 0.19 0.17 0.09 0.04 0.03 0.03 0.03 0.03 0.02 0.01 0.01 0.00 0.00 0.00 0.00 0.00 0.00 0.00 0.01 0.02 0.02 0.01 0.02 0.02 0.04 0.06 0.08 0.09 0.11 0.10 0.10 0.13 0.12 0.09 0.11 0.12 0.10 0.06 0.05 0.06 0.05 0.04 0.03 0.02
0.01 0.02 0.04 0.09 0.11 0.11 0.10 0.08 0.04 0.04 0.03 0.02 0.02 0.03 0.03 0.01 0.00 0.00 0.01 0.01 0.00 0.01 0.01 0.01 0.03 0.02 0.02 0.02 0.02 0.03 0.04 0.05 0.07 0.10 0.12 0.11 0.12 0.13 0.11 0.09 0.09 0.07 0.05 0.05 0.10 0.12 0.11 0.07 0.05
0.01 0.01 0.03 0.06 0.08 0.09 0.09 0.07 0.04 0.06 0.03 0.03 0.03 0.03 0.03 0.01 0.00 0.01 0.01 0.01 0.01 0.01 0.01 0.02 0.03 0.04 0.03 0.03 0.03 0.03 0.04 0.05 0.05 0.07 0.09 0.08 0.06 0.06 0.07 0.08 0.09 0.06 0.07 0.10 0.11 0.10 0.13 0.15 0.12
0.01 0.01 0.02 0.03 0.04 0.04 0.06 0.06 0.06 0.06 0.03 0.03 0.03 0.03 0.03 0.01 0.01 0.01 0.02 0.02 0.01 0.01 0.01 0.03 0.03 0.04 0.04 0.04 0.04 0.04 0.05 0.06 0.06 0.06 0.07 0.07 0.06 0.06 0.07 0.08 0.08 0.07 0.08 0.10 0.10 0.08 0.08 0.12 0.12
0.01 0.01 0.01 0.01 0.02 0.02 0.03 0.05 0.06 0.06 0.03 0.02 0.02 0.02 0.03 0.03 0.01 0.02 0.03 0.03 0.04 0.03 0.02 0.02 0.03 0.05 0.05 0.05 0.06 0.07 0.08 0.09 0.09 0.08 0.08 0.08 0.08 0.08 0.09 0.10 0.11 0.11 0.13 0.14 0.13 0.11 0.12 0.13 0.13
0.00 0.00 0.00 0.00 0.01 0.01 0.02 0.05 0.06 0.03 0.04 0.02 0.01 0.02 0.02 0.02 0.02 0.03 0.05 0.09 0.08 0.05 0.03 0.03 0.03 0.05 0.06 0.06 0.07 0.09 0.11 0.12 0.12 0.13 0.12 0.11 0.12 0.14 0.18 0.17 0.23 0.25 0.31 0.33 0.32 0.28 0.27 0.24 0.20
0.00 0.00 0.00 0.00 0.00 0.00 0.01 0.04 0.05 0.03 0.05 0.05 0.04 0.03 0.03 0.06 0.11 0.08 0.05 0.12 0.12 0.10 0.08 0.05 0.05 0.05 0.05 0.05 0.11 0.16 0.18 0.21 0.17 0.21 0.23 0.25 0.27 0.26 0.19 0.24 0.43 0.64 0.79 0.78 0.77 0.75 0.62 0.54 0.52
0.00 0.00 0.00 0.00 0.00 0.00 0.01 0.02 0.03 0.03 0.04 0.09 0.11 0.07 0.06 0.12 0.10 0.06 0.11 0.20 0.25 0.19 0.14 0.11 0.09 0.11 0.12 0.15 0.19 0.23 0.28 0.33 0.28 0.30 0.36 0.43 0.43 0.34 0.29 0.35 0.51 0.72 0.90 1.02 1.32 1.39 1.09 1.11 1.09
0.00 0.00 0.00 0.00 0.00 0.00 0.00 0.01 0.02 0.03 0.04 0.10 0.18 0.14 0.11 0.11 0.08 0.09 0.22 0.33 0.35 0.27 0.23 0.18 0.17 0.23 0.27 0.27 0.35 0.41 0.41 0.44 0.44 0.50 0.58 0.62 0.67 0.59 0.55 0.62 0.71 0.89 1.00 1.29 1.40 1.47 1.35 1.24 1.14
0.00 0.00 0.00 0.00 0.00 0.00 0.00 0.01 0.01 0.03 0.04 0.06 0.08 0.10 0.09 0.08 0.10 0.16 0.28 0.37 0.49 0.55 0.50 0.44 0.40 0.54 0.58 0.54 0.60 0.59 0.60 0.62 0.68 0.76 0.83 0.88 0.91 0.85 0.87 0.95 1.02 0.93 1.04 1.29 1.49 1.44 1.58 1.62 1.48
0.00 0.00 0.00 0.00 0.00 0.00 0.00 0.01 0.02 0.04 0.05 0.06 0.08 0.10 0.15 0.23 0.25 0.31 0.41 0.61 0.57 0.59 0.68 0.73 0.71 0.80 0.82 0.84 0.94 0.95 0.83 0.83 0.83 0.97 1.04 1.15 1.14 1.15 1.22 1.24 1.26 1.11 1.12 1.31 1.53 1.47 1.73 1.68 1.68
0.00 0.00 0.00 0.00 0.00 0.01 0.00 0.02 0.04 0.06 0.07 0.08 0.11 0.15 0.22 0.29 0.39 0.53 0.64 0.71 0.67 0.74 0.86 0.90 0.95 1.14 1.29 1.40 1.47 1.43 1.30 1.19 1.17 1.19 1.27 1.38 1.37 1.45 1.45 1.41 1.36 1.37 1.34 1.47 1.54 1.58 1.71 1.55 1.44
0.00 0.00 0.00 0.01 0.01 0.01 0.01 0.05 0.06 0.08 0.11 0.12 0.17 0.26 0.35 0.42 0.56 0.80 0.96 0.83 0.81 0.95 1.04 1.06 1.17 1.53 1.84 1.91 1.88 1.80 1.63 1.47 1.39 1.45 1.43 1.53 1.56 1.64 1.75 1.54 1.45 1.67 1.71 1.78 1.92 1.85 1.89 1.92 1.75
0.00 0.00 0.01 0.01 0.02 0.03 0.03 0.07 0.09 0.12 0.17 0.20 0.24 0.34 0.52 0.70 0.85 0.91 0.92 0.95 1.08 1.24 1.25 1.36 1.58 1.84 2.08 2.15 2.23 2.07 1.88 1.71 1.55 1.47 1.43 1.48 1.64 1.87 2.11 1.87 1.85 1.96 1.97 1.96 1.75 2.09 2.30 2.21 2.03
0.00 0.01 0.01 0.02 0.03 0.03 0.05 0.10 0.16 0.20 0.25 0.34 0.43 0.50 0.62 0.75 0.89 0.98 1.06 1.16 1.29 1.49 1.60 1.67 1.81 2.05 2.43 2.73 2.78 2.44 2.09 1.85 1.72 1.64 1.65 1.74 1.96 2.17 2.38 2.12 2.06 2.11 2.14 2.06 2.11 2.37 2.36 2.12 2.08
0.01 0.02 0.04 0.03 0.03 0.04 0.07 0.15 0.25 0.36 0.50 0.70 0.74 0.66 0.69 0.80 1.06 1.27 1.41 1.36 1.54 1.71 1.92 2.06 2.27 2.69 3.15 3.15 2.88 2.70 2.42 2.21 2.03 1.91 1.85 1.88 1.92 2.10 2.35 2.16 2.30 2.25 2.09 2.04 2.16 2.36 2.33 2.08 2.28
0.01 0.03 0.04 0.03 0.04 0.05 0.12 0.24 0.38 0.51 0.71 0.75 0.60 0.55 0.70 0.92 1.23 1.46 1.58 1.57 1.65 1.96 2.37 2.59 2.74 3.15 3.44 3.36 3.23 3.05 2.86 2.51 2.38 2.26 2.12 1.93 1.85 1.98 2.08 2.25 2.12 2.10 2.07 2.06 2.20 2.33 2.14 1.86 2.28
0.02 0.03 0.03 0.04 0.05 0.09 0.16 0.39 0.60 0.72 0.83 0.75 0.65 0.68 0.77 0.87 1.14 1.33 1.30 1.34 1.45 1.60 1.84 2.15 2.56 3.01 3.18 3.28 3.24 3.14 3.07 2.66 2.50 2.36 2.20 2.01 1.89 1.86 1.97 2.07 2.08 1.99 1.97 1.95 2.11 2.16 2.11 1.98 2.10
0.02 0.02 0.02 0.03 0.05 0.11 0.17 0.43 0.74 1.05 1.10 0.84 0.70 0.71 0.78 1.06 1.24 1.12 1.01 1.10 1.19 1.19 1.45 1.72 2.10 2.47 2.72 2.87 2.91 2.96 2.87 2.68 2.63 2.46 2.13 1.91 1.79 1.79 1.85 1.87 1.86 1.86 1.81 1.78 1.75 1.84 2.14 2.18 1.99
0.02 0.02 0.03 0.03 0.03 0.06 0.11 0.34 0.77 1.24 1.29 0.85 0.71 0.74 0.90 1.11 1.05 0.93 0.94 1.06 1.10 1.14 1.37 1.60 1.83 2.13 2.38 2.49 2.49 2.50 2.41 2.34 2.30 2.16 1.93 1.77 1.66 1.60 1.52 1.54 1.69 1.74 1.67 1.61 1.63 1.74 1.89 1.91 1.88
0.03 0.05 0.06 0.07 0.10 0.20 0.24 0.39 0.82 1.18 1.04 0.74 0.70 0.64 0.74 0.90 0.91 0.93 0.98 1.04 1.11 1.29 1.47 1.69 1.90 2.15 2.28 2.13 1.98 1.97 1.98 2.01 1.94 1.81 1.66 1.51 1.42 1.35 1.29 1.37 1.49 1.53 1.53 1.52 1.48 1.54 1.64 1.71 1.74
0.06 0.09 0.20 0.34 0.45 0.56 0.48 0.59 1.11 0.97 0.72 0.63 0.65 0.64 0.63 0.71 0.76 0.80 0.98 1.20 1.24 1.22 1.24 1.43 1.72 2.03 2.06 1.89 1.72 1.64 1.63 1.69 1.68 1.59 1.50 1.44 1.33 1.24 1.21 1.24 1.24 1.28 1.31 1.37 1.40 1.41 1.48 1.61 1.66
0.09 0.13 0.29 0.36 0.33 0.46 0.47 0.84 1.23 0.90 0.63 0.53 0.55 0.58 0.52 0.46 0.39 0.40 0.49 0.60 0.58 0.58 0.59 0.65 0.79 1.01 1.13 1.11 1.10 1.11 1.14 1.21 1.27 1.37 1.33 1.33 1.28 1.17 1.12 1.06 1.04 1.09 1.12 1.15 1.27 1.37 1.46 1.56 1.62
0.19 0.21 0.20 0.31 0.31 0.40 0.51 0.74 0.80 0.59 0.53 0.49 0.50 0.48 0.42 0.35 0.29 0.28 0.29 0.32 0.37 0.38 0.42 0.51 0.58 0.66 0.72 0.72 0.71 0.73 0.79 0.89 0.96 1.03 1.07 1.10 1.11 1.05 1.04 1.04 1.05 1.03 1.04 1.10 1.18 1.27 1.31 1.43 1.52
0.15 0.22 0.35 0.51 0.52 0.44 0.45 0.79 0.99 0.90 0.81 0.67 0.61 0.55 0.44 0.34 0.29 0.27 0.28 0.32 0.40 0.48 0.57 0.63 0.62 0.58 0.55 0.55 0.56 0.54 0.60 0.66 0.72 0.75 0.78 0.79 0.80 0.84 0.85 0.86 0.89 0.91 0.92 0.94 1.03 1.12 1.20 1.29 1.35
0.15 0.21 0.35 0.48 0.50 0.52 0.54 0.67 0.60 0.66 0.76 0.83 0.83 0.69 0.48 0.35 0.30 0.29 0.28 0.31 0.36 0.45 0.52 0.59 0.60 0.57 0.55 0.53 0.53 0.53 0.52 0.52 0.55 0.61 0.62 0.65 0.66 0.68 0.69 0.72 0.75 0.80 0.84 0.89 0.93 0.97 1.06 1.11 1.14
0.12 0.20 0.33 0.50 0.54 0.55 0.59 0.62 0.36 0.38 0.50 0.59 0.58 0.46 0.33 0.27 0.25 0.24 0.23 0.25 0.28 0.35 0.42 0.46 0.48 0.52 0.52 0.47 0.48 0.50 0.48 0.45 0.47 0.48 0.49 0.52 0.56 0.58 0.59 0.62 0.65 0.70 0.76 0.84 0.94 1.00 1.05 1.07 1.07

GEFSSGP_prec_meanprecacc_114.txt.gz
Total_Precipitation_Accumulation
0.01 0.04 0.14 0.22 0.27 0.37 0.42 0.23 0.14 0.05 0.03 0.02 0.02 0.01 0.01 0.01 0.04 0.13 0.02 0.00 0.00 0.00 0.01 0.03 0.02 0.01 0.02 0.02 0.04 0.05 0.05 0.05 0.07 0.09 0.12 0.13 0.15 0.12 0.07 0.05 0.04 0.04 0.04 0.03 0.03 0.04 0.05 0.05 0.04
0.01 0.04 0.14 0.20 0.32 0.61 0.51 0.22 0.08 0.04 0.03 0.03 0.02 0.01 0.01 0.00 0.00 0.00 0.00 0.00 0.00 0.00 0.01 0.01 0.02 0.02 0.01 0.02 0.04 0.06 0.06 0.05 0.06 0.12 0.13 0.12 0.13 0.12 0.10 0.09 0.08 0.07 0.05 0.03 0.03 0.03 0.03 0.04 0.02
0.01 0.03 0.10 0.16 0.32 0.45 0.35 0.21 0.09 0.05 0.04 0.03 0.03 0.02 0.01 0.01 0.00 0.00 0.00 0.00 0.00 0.00 0.02 0.02 0.01 0.01 0.02 0.02 0.03 0.06 0.08 0.07 0.07 0.12 0.12 0.10 0.11 0.13 0.12 0.14 0.14 0.11 0.07 0.04 0.04 0.03 0.03 0.03 0.02
0.01 0.02 0.06 0.11 0.19 0.21 0.19 0.12 0.07 0.03 0.03 0.03 0.03 0.02 0.03 0.01 0.00 0.00 0.00 0.00 0.00 0.01 0.05 0.03 0.02 0.02 0.02 0.02 0.03 0.04 0.07 0.08 0.09 0.11 0.11 0.11 0.14 0.13 0.10 0.13 0.14 0.11 0.07 0.06 0.07 0.07 0.04 0.03 0.02
0.01 0.02 0.04 0.11 0.16 0.16 0.13 0.11 0.06 0.04 0.03 0.03 0.03 0.05 0.04 0.01 0.00 0.00 0.01 0.01 0.01 0.01 0.02 0.02 0.03 0.02 0.02 0.02 0.03 0.04 0.05 0.06 0.07 0.10 0.13 0.12 0.12 0.13 0.12 0.11 0.10 0.08 0.07 0.06 0.11 0.13 0.12 0.08 0.05
0.01 0.01 0.03 0.09 0.14 0.16 0.14 0.09 0.05 0.06 0.05 0.05 0.05 0.05 0.05 0.02 0.01 0.01 0.01 0.02 0.01 0.01 0.02 0.03 0.04 0.04 0.04 0.03 0.03 0.04 0.04 0.05 0.05 0.07 0.10 0.08 0.07 0.07 0.08 0.10 0.10 0.07 0.08 0.11 0.12 0.12 0.14 0.16 0.13
0.01 0.01 0.02 0.04 0.06 0.07 0.09 0.10 0.09 0.07 0.04 0.04 0.03 0.04 0.11 0.07 0.02 0.01 0.02 0.03 0.03 0.02 0.02 0.03 0.04 0.05 0.05 0.04 0.05 0.05 0.06 0.07 0.07 0.07 0.07 0.07 0.07 0.07 0.08 0.09 0.09 0.08 0.09 0.11 0.12 0.09 0.10 0.14 0.14
0.01 0.01 0.01 0.01 0.03 0.03 0.04 0.06 0.08 0.08 0.04 0.03 0.03 0.06 0.16 0.15 0.03 0.02 0.03 0.04 0.05 0.03 0.02 0.03 0.05 0.09 0.09 0.08 0.09 0.09 0.09 0.10 0.10 0.10 0.10 0.10 0.10 0.10 0.12 0.11 0.12 0.12 0.14 0.15 0.15 0.12 0.14 0.15 0.15
0.00 0.00 0.00 0.01 0.01 0.02 0.02 0.06 0.09 0.05 0.05 0.03 0.02 0.02 0.06 0.05 0.03 0.03 0.05 0.10 0.10 0.06 0.05 0.05 0.07 0.11 0.13 0.12 0.12 0.14 0.15 0.15 0.16 0.18 0.17 0.16 0.18 0.23 0.27 0.22 0.27 0.28 0.33 0.35 0.33 0.29 0.29 0.26 0.23
0.00 0.00 0.00 0.00 0.00 0.00 0.02 0.05 0.06 0.05 0.08 0.09 0.08 0.05 0.03 0.07 0.11 0.09 0.06 0.13 0.13 0.11 0.09 0.08 0.09 0.10 0.09 0.11 0.20 0.25 0.26 0.30 0.25 0.32 0.35 0.37 0.42 0.40 0.31 0.39 0.52 0.70 0.83 0.81 0.81 0.79 0.66 0.58 0.56
0.00 0.00 0.00 0.00 0.00 0.00 0.01 0.03 0.05 0.06 0.14 0.23 0.26 0.11 0.06 0.12 0.11 0.08 0.12 0.22 0.26 0.20 0.15 0.11 0.11 0.14 0.16 0.21 0.26 0.32 0.38 0.48 0.42 0.44 0.54 0.64 0.63 0.50 0.42 0.51 0.65 0.82 0.97 1.10 1.41 1.46 1.15 1.18 1.19
0.00 0.00 0.00 0.00 0.00 0.00 0.01 0.03 0.09 0.09 0.16 0.27 0.37 0.21 0.12 0.12 0.16 0.20 0.30 0.37 0.39 0.29 0.26 0.21 0.20 0.26 0.33 0.35 0.44 0.49 0.50 0.56 0.57 0.68 0.76 0.86 0.89 0.79 0.74 0.81 0.88 1.05 1.14 1.44 1.58 1.65 1.51 1.38 1.25
0.00 0.00 0.00 0.00 0.00 0.00 0.02 0.04 0.06 0.07 0.13 0.15 0.15 0.13 0.11 0.12 0.19 0.26 0.34 0.44 0.54 0.60 0.56 0.51 0.46 0.59 0.64 0.62 0.70 0.68 0.70 0.73 0.81 0.93 1.01 1.07 1.11 1.06 1.07 1.15 1.23 1.09 1.22 1.49 1.69 1.64 1.81 1.81 1.64
0.00 0.00 0.00 0.00 0.00 0.01 0.01 0.04 0.05 0.07 0.07 0.09 0.12 0.16 0.22 0.34 0.40 0.41 0.46 0.66 0.64 0.69 0.76 0.79 0.76 0.86 0.89 0.91 1.01 1.02 0.91 0.94 0.96 1.13 1.18 1.28 1.30 1.33 1.41 1.44 1.44 1.26 1.26 1.47 1.70 1.64 1.92 1.86 1.84
0.01 0.01 0.03 0.02 0.01 0.01 0.02 0.09 0.15 0.10 0.08 0.10 0.14 0.18 0.26 0.37 0.51 0.61 0.68 0.75 0.73 0.81 0.92 0.95 0.99 1.19 1.35 1.47 1.54 1.50 1.36 1.25 1.26 1.32 1.38 1.48 1.47 1.58 1.60 1.56 1.51 1.50 1.48 1.64 1.71 1.75 1.89 1.72 1.60
0.01 0.03 0.08 0.07 0.03 0.02 0.06 0.28 0.25 0.13 0.16 0.16 0.20 0.31 0.44 0.49 0.60 0.83 0.99 0.89 0.87 1.01 1.10 1.10 1.22 1.60 1.92 1.99 1.96 1.86 1.68 1.53 1.46 1.53 1.51 1.58 1.62 1.74 1.86 1.67 1.58 1.82 1.84 1.93 2.08 2.02 2.07 2.08 1.93
0.01 0.04 0.07 0.09 0.04 0.04 0.13 0.51 0.38 0.20 0.25 0.25 0.29 0.42 0.64 0.81 0.91 0.94 0.96 1.00 1.14 1.28 1.29 1.40 1.63 1.90 2.14 2.22 2.29 2.13 1.93 1.76 1.61 1.53 1.49 1.54 1.70 1.93 2.20 1.97 1.97 2.09 2.09 2.07 1.85 2.23 2.46 2.36 2.19
0.00 0.02 0.05 0.08 0.05 0.05 0.16 0.36 0.34 0.27 0.33 0.39 0.47 0.55 0.70 0.84 0.97 1.05 1.13 1.20 1.31 1.50 1.62 1.69 1.84 2.09 2.49 2.79 2.83 2.48 2.12 1.88 1.75 1.68 1.69 1.78 2.00 2.19 2.42 2.19 2.14 2.21 2.25 2.16 2.22 2.49 2.48 2.23 2.19
0.01 0.03 0.07 0.07 0.05 0.07 0.17 0.31 0.40 0.42 0.54 0.76 0.80 0.72 0.77 0.88 1.13 1.33 1.47 1.44 1.59 1.74 1.94 2.08 2.31 2.74 3.20 3.19 2.92 2.73 2.45 2.23 2.05 1.93 1.87 1.89 1.92 2.11 2.36 2.19 2.34 2.30 2.16 2.12 2.24 2.45 2.42 2.17 2.38
0.01 0.04 0.10 0.09 0.06 0.08 0.18 0.38 0.49 0.56 0.75 0.82 0.66 0.62 0.78 1.00 1.31 1.54 1.63 1.67 1.76 2.02 2.41 2.62 2.78 3.19 3.48 3.40 3.26 3.06 2.87 2.52 2.40 2.27 2.13 1.94 1.86 1.99 2.10 2.27 2.14 2.13 2.11 2.11 2.26 2.40 2.20 1.92 2.37
0.03 0.05 0.09 0.07 0.06 0.12 0.21 0.50 0.68 0.79 0.87 0.80 0.71 0.75 0.85 0.93 1.22 1.39 1.35 1.39 1.49 1.64 1.87 2.18 2.58 3.03 3.21 3.31 3.25 3.15 3.08 2.67 2.51 2.36 2.21 2.02 1.90 1.87 1.98 2.09 2.09 2.01 1.99 1.98 2.15 2.21 2.16 2.02 2.18
0.05 0.04 0.03 0.03 0.08 0.27 0.30 0.66 0.93 1.14 1.16 0.89 0.79 0.80 0.85 1.08 1.27 1.16 1.05 1.15 1.22 1.21 1.46 1.74 2.12 2.48 2.74 2.89 2.93 2.98 2.89 2.69 2.63 2.46 2.13 1.91 1.79 1.80 1.86 1.88 1.87 1.87 1.82 1.81 1.77 1.88 2.18 2.23 2.04
0.03 0.03 0.03 0.04 0.08 0.22 0.25 0.55 0.97 1.34 1.41 0.94 0.79 0.83 0.96 1.14 1.07 0.96 0.97 1.08 1.12 1.15 1.39 1.61 1.85 2.15 2.40 2.51 2.51 2.53 2.44 2.36 2.30 2.16 1.93 1.78 1.66 1.60 1.52 1.54 1.70 1.76 1.69 1.63 1.65 1.77 1.92 1.95 1.93
0.03 0.05 0.08 0.12 0.23 0.44 0.35 0.49 0.98 1.33 1.17 0.91 0.79 0.73 0.82 0.92 0.92 0.95 1.00 1.06 1.12 1.32 1.52 1.71 1.93 2.17 2.29 2.14 2.00 1.99 2.01 2.04 1.96 1.83 1.68 1.52 1.43 1.36 1.29 1.38 1.51 1.55 1.55 1.55 1.52 1.57 1.67 1.75 1.79
0.06 0.12 0.40 0.64 0.84 0.79 0.54 0.63 1.19 1.06 0.76 0.68 0.71 0.68 0.67 0.72 0.76 0.81 0.99 1.20 1.26 1.26 1.26 1.44 1.74 2.05 2.07 1.91 1.74 1.66 1.66 1.72 1.70 1.61 1.52 1.45 1.33 1.25 1.22 1.25 1.27 1.30 1.35 1.40 1.44 1.46 1.52 1.66 1.71
0.10 0.18 0.50 0.61 0.59 0.62 0.52 0.88 1.27 0.93 0.65 0.54 0.56 0.59 0.53 0.47 0.39 0.41 0.50 0.60 0.58 0.58 0.59 0.66 0.80 1.02 1.14 1.12 1.12 1.12 1.16 1.23 1.28 1.38 1.34 1.34 1.29 1.18 1.13 1.07 1.06 1.11 1.15 1.18 1.31 1.40 1.49 1.61 1.67
0.20 0.23 0.22 0.34 0.38 0.52 0.56 0.78 0.84 0.64 0.56 0.50 0.51 0.48 0.42 0.35 0.29 0.28 0.29 0.32 0.37 0.38 0.42 0.51 0.59 0.67 0.72 0.72 0.71 0.74 0.80 0.90 0.97 1.04 1.07 1.11 1.11 1.06 1.04 1.05 1.07 1.05 1.06 1.12 1.21 1.30 1.34 1.47 1.56
0.15 0.22 0.35 0.52 0.56 0.52 0.54 0.86 1.05 0.95 0.82 0.67 0.61 0.55 0.44 0.34 0.29 0.27 0.28 0.32 0.40 0.48 0.57 0.63 0.63 0.59 0.55 0.55 0.56 0.54 0.60 0.66 0.72 0.76 0.78 0.79 0.81 0.85 0.86 0.87 0.90 0.92 0.93 0.95 1.05 1.14 1.23 1.33 1.39
0.16 0.21 0.36 0.49 0.51 0.55 0.63 0.76 0.64 0.68 0.76 0.84 0.83 0.69 0.48 0.35 0.30 0.29 0.28 0.31 0.36 0.45 0.52 0.59 0.60 0.57 0.55 0.53 0.53 0.53 0.52 0.52 0.55 0.61 0.63 0.65 0.67 0.69 0.70 0.73 0.76 0.81 0.85 0.90 0.95 0.99 1.08 1.13 1.17
0.13 0.20 0.33 0.51 0.55 0.56 0.61 0.66 0.39 0.40 0.51 0.60 0.59 0.46 0.33 0.27 0.25 0.24 0.23 0.25 0.28 0.35 0.42 0.46 0.48 0.52 0.52 0.47 0.48 0.50 0.48 0.45 0.47 0.49 0.50 0.53 0.57 0.60 0.61 0.63 0.66 0.71 0.77 0.86 0.95 1.01 1.07 1.09 1.09